[[{"header":{"parameterUnit":"m.s-1","parameterCategory":2,"la1":30.2991,"la2":30.254,"lo1":-89.0895,"lo2":-89.0444,"dy":0.0017,"dx":0.0017,"nx":28,"ny":28,"refTime":"2023-08-13T03:00:00:Z","depth":"0","parameterNumber":2,"parameterNumberName":"U-component_of_CURRENTS"},"data":[0,0,0,0,0,0,0,0,0,0,0,0,0,0,0,0,0,0,0,0,0,0,0,0,0,0,0,0,0,0,0,0,0,0,0,0,0,0,0,0,0,0,0,0,0,0,0,0,0,0,0,0,0,0,0,0,0,0,0.0345,0.0344,0,0.0195,0.0193,0.019,0.0164,0.0166,0.0167,0.0169,0.0064,0.006,0.0056,0,0,0,0,0,0,0,0,0,0,0,0,0,0.0231,0.0235,0.0346,0.0344,0.0343,0.0195,0.0192,0.019,0.0164,0.0166,0.0168,0.017,0.0066,0.0061,0.0055,0,0,0,0,0,0,0,0,0,0,0,0,0,0.0196,0.0236,0.0346,0.0316,0.0312,0.0196,0.0192,0.0189,0.0163,0.0166,0.0168,0.0171,0.0067,0.0061,0.0055,-0.0038,0,0,0.0034,0.0032,0,0,0,0,0,0,0,0,0.0199,0.02,0.0321,0.0317,0.0313,0.0205,0.0113,0.0117,0.0163,0.0214,0.0169,0.0172,0.0117,0.0106,0.0065,-0.0043,-0.0047,0.0034,0.003,0.0027,0.0025,0,0,0,0,0,0,0,0.0202,0.0204,0.0281,0.032,0.0315,0.0179,0.018,0.0112,0.015,0.021,0.0209,0.0199,0.0115,0.0071,0.0062,-0.0049,0.0034,0.0028,0.0024,0.0022,-0.0131,-0.0131,0,0,0,0,0,0,0.0249,0.0209,0.0286,0.0277,0.0267,0.0181,0.0182,0.0233,0.015,0.014,0.0197,0.0199,0.0081,0.007,0.0059,0.007,0.0027,0.0021,0.0017,-0.0131,-0.0131,-0.0131,0,0,0,0,0,0,0.0248,0.0259,0.0292,0.0238,0.0234,0.0184,0.0239,0.0229,0.0242,0.014,0.0132,0.0229,0.0082,0.0068,0.0086,0.0062,0.0018,0.0012,-0.0131,-0.0131,-0.0131,0.0013,0,0,0,0,0,0,0.0246,0.0261,0.0284,0.0245,0.024,0.0281,0.0237,0.0224,0.0231,0.0233,0.0163,0.0152,0.0083,0.0097,0.008,0.0052,0.0007,-0.0131,-0.0131,-0.0131,0.0008,0.0017,0.0025,0,0,0,0,0,0.0243,0.027,0.0288,0.0294,0.0287,0.0283,0.0269,0.0232,0.0231,0.025,0.0231,0.0158,0.008,0.0095,0.0073,0.0042,-0.0131,-0.0131,-0.0131,0.0004,0.0015,0.0025,0,0,0,0,0,0,0.0211,0.0269,0.0288,0.0329,0.0338,0.0283,0.0274,0.0265,0.0254,0.0251,0.0189,0.0177,0.0158,0.0096,0.0113,-0.0006,-0.0053,-0.0057,0.0056,0.0066,0.0075,0.0121,0.0001,0,0,0,0,0,0.0224,0.028,0.0304,0.0336,0.0359,0.0331,0.0316,0.0297,0.0285,0.0283,0.024,0.0178,0.0122,0.0108,0.0033,0.0001,0.0008,-0.0046,-0.0037,-0.0029,-0.0007,0.0035,0.0052,-0.0132,-0.0132,-0.0132,0,0,0.0203,0.0253,0.0271,0.0334,0.0336,0.0344,0.0331,0.033,0.0322,0.0269,0.0257,0.0209,0.0122,0.0077,0.0059,0.004,0.0027,-0.0029,-0.0021,-0.0004,0.0037,0.0055,0.0072,-0.0132,-0.0132,-0.0132,0,0,0.0185,0.027,0.0301,0.0344,0.0373,0.0353,0.0383,0.0365,0.0363,0.0356,0.0298,0.0287,0.0192,0.0137,0.0094,0.0111,0.0068,0.0051,0.014,0.0182,0.0199,0.0214,0.0265,0.0284,0.0062,0.0062,0.0062,0,0.0164,0.0222,0.0297,0.035,0.037,0.0384,0.0398,0.0389,0.0367,0.0373,0.0376,0.0282,0.0215,0.0179,0.0182,0.013,0.0163,0.0116,0.0201,0.0215,0.0229,0.0277,0.0296,0.0069,0.0068,0.0068,0.0067,0,0.0179,0.0222,0.0256,0.0342,0.0371,0.0391,0.0419,0.0437,0.0438,0.0413,0.0413,0.0363,0.0313,0.0272,0.0239,0.0263,0.0261,0.0211,0.0193,0.0257,0.0302,0.0319,0.0079,0.0076,0.0074,0.0073,0,0,0.0175,0.0241,0.0265,0.0288,0.0375,0.0396,0.0432,0.0451,0.0468,0.047,0.0495,0.0435,0.0428,0.0383,0.0331,0.0383,0.0502,0.0358,0.0357,0.0443,0.063,0.0714,0.074,0.0491,0.0494,0.0497,0.0634,0,0.0169,0.0223,0.0262,0.0296,0.0333,0.0395,0.0419,0.0447,0.0469,0.0493,0.0499,0.047,0.0459,0.0439,0.0501,0.0473,0.0552,0.0471,0.0524,0.0526,0.0621,0.0764,0.0869,0.1009,0.065,0.0653,0.0655,0,0.0198,0.0231,0.025,0.0289,0.0316,0.0323,0.0408,0.0425,0.0483,0.0505,0.0549,0.0533,0.0583,0.0563,0.0664,0.0624,0.0655,0.0671,0.0674,0.0718,0.0643,0.0877,0.1053,0.1074,0.0681,0.0679,0.0677,0,0.0206,0.0234,0.0234,0.027,0.0312,0.0332,0.0353,0.0424,0.0464,0.0513,0.0557,0.0601,0.0633,0.07,0.076,0.0713,0.0904,0.081,0.0932,0.0936,0.1018,0.1026,0.1251,0.0923,0.0922,0.0922,0.0922,0,0.0238,0.0248,0.0223,0.0263,0.0262,0.0311,0.0341,0.0388,0.0457,0.0518,0.0553,0.0635,0.0683,0.0789,0.0819,0.0976,0.0954,0.1006,0.1002,0.1069,0.108,0.1088,0.0971,0.0927,0.0926,0.0925,0.0924,0,0.0269,0.026,0.0259,0.0269,0.0274,0.0288,0.0349,0.0386,0.0448,0.0547,0.0569,0.0691,0.0844,0.0924,0.1032,0.1066,0.1119,0.1215,0.1309,0.1316,0.1413,0.1296,0.1174,0.1092,0.1359,0.1363,0.1365,0,0.028,0.0279,0.0274,0.0282,0.0281,0.0301,0.0337,0.039,0.0452,0.0601,0.0665,0.0827,0.0969,0.1198,0.1316,0.1444,0.1275,0.1572,0.1489,0.1508,0.1372,0.105,0.0963,0.165,0.1655,0.1659,0.1662,0,0.03,0.0285,0.0301,0.0315,0.033,0.0353,0.0406,0.045,0.0541,0.0625,0.0786,0.0897,0.1182,0.1399,0.1594,0.1667,0.1457,0.1656,0.166,0.1638,0.1315,0.1207,0.1456,0.1698,0.1694,0.1691,0.169,0.1688,0.0321,0.032,0.0342,0.0351,0.0365,0.0413,0.0457,0.0523,0.0617,0.0764,0.0859,0.1044,0.1383,0.1696,0.1796,0.203,0.1695,0.2012,0.1877,0.1554,0.1459,0.1805,0.2039,0.2038,0.2037,0.2035,0.2034,0,0.0353,0.0372,0.0387,0.041,0.0422,0.0435,0.0517,0.0576,0.0682,0.0813,0.0942,0.1272,0.1606,0.188,0.2229,0.226,0.2022,0.221,0.1831,0.1739,0.2129,0.2141,0.243,0.2429,0.2429,0.2429,0.2429,0.2429,0.0393,0.0417,0.0419,0.0455,0.0471,0.0525,0.0578,0.0664,0.0766,0.0947,0.1099,0.1228,0.1564,0.2021,0.232,0.2343,0.2021,0.1929,0.1726,0.2125,0.2096,0.2069,0.2065,0.2333,0.2333,0.1329,0.1321,0.1316]},{"header":{"parameterUnit":"m.s-1","parameterCategory":2,"la1":30.2991,"la2":30.254,"lo1":-89.0895,"lo2":-89.0444,"dy":0.0017,"dx":0.0017,"nx":28,"ny":28,"refTime":"2023-08-13T03:00:00:Z","depth":"0","parameterNumber":3,"parameterNumberName":"V-component_of_CURRENTS"},"data":[0,0,0,0,0,0,0,0,0,0,0,0,0,0,0,0,0,0,0,0,0,0,0,0,0,0,0,0,0,0,0,0,0,0,0,0,0,0,0,0,0,0,0,0,0,0,0,0,0,0,0,0,0,0,0,0,0,0,-0.0223,-0.0224,0,-0.0245,-0.0245,-0.0245,-0.0209,-0.0208,-0.0208,-0.0207,-0.0189,-0.0189,-0.0189,0,0,0,0,0,0,0,0,0,0,0,0,0,-0.0128,-0.0129,-0.0223,-0.0224,-0.0225,-0.0245,-0.0245,-0.0245,-0.0209,-0.0208,-0.0208,-0.0207,-0.0189,-0.0189,-0.0189,0,0,0,0,0,0,0,0,0,0,0,0,0,-0.0154,-0.013,-0.0223,-0.0215,-0.0215,-0.0245,-0.0245,-0.0244,-0.0209,-0.0208,-0.0207,-0.0207,-0.0189,-0.0189,-0.0189,-0.0206,0,0,-0.0189,-0.0189,0,0,0,0,0,0,0,0,-0.0153,-0.0157,-0.0215,-0.0216,-0.0216,-0.023,-0.0205,-0.0232,-0.0209,-0.0203,-0.0207,-0.0206,-0.0205,-0.0203,-0.0199,-0.0205,-0.0204,-0.0189,-0.0189,-0.0189,-0.0189,0,0,0,0,0,0,0,-0.0151,-0.0156,-0.0224,-0.0217,-0.0217,-0.0204,-0.0206,-0.021,-0.0202,-0.0204,-0.0203,-0.0218,-0.0203,-0.0199,-0.0199,-0.0204,-0.0189,-0.0189,-0.0189,-0.0189,-0.0268,-0.027,0,0,0,0,0,0,-0.0166,-0.0154,-0.0223,-0.0226,-0.019,-0.0207,-0.0209,-0.022,-0.0202,-0.0202,-0.0219,-0.0216,-0.02,-0.0199,-0.0198,-0.0239,-0.0189,-0.0189,-0.0189,-0.0266,-0.0269,-0.0271,0,0,0,0,0,0,-0.0164,-0.0172,-0.0223,-0.0196,-0.0203,-0.021,-0.0223,-0.0221,-0.022,-0.0216,-0.0212,-0.022,-0.0199,-0.0198,-0.0221,-0.0237,-0.0189,-0.0189,-0.0264,-0.0267,-0.027,-0.0307,0,0,0,0,0,0,-0.0161,-0.0171,-0.0187,-0.0198,-0.0205,-0.0247,-0.0224,-0.0223,-0.0234,-0.0231,-0.0216,-0.0213,-0.0198,-0.0221,-0.0221,-0.0236,-0.0189,-0.0261,-0.0265,-0.0269,-0.0303,-0.0311,-0.0318,0,0,0,0,0,-0.0157,-0.0191,-0.0188,-0.0197,-0.0226,-0.0248,-0.025,-0.0247,-0.0235,-0.024,-0.0242,-0.0214,-0.0246,-0.0223,-0.0222,-0.0238,-0.0259,-0.0264,-0.0269,-0.03,-0.031,-0.0318,0,0,0,0,0,0,-0.0174,-0.0192,-0.0188,-0.0229,-0.0239,-0.0245,-0.0264,-0.0254,-0.0258,-0.0252,-0.0238,-0.0237,-0.0277,-0.0256,-0.0232,-0.0277,-0.0249,-0.0254,-0.0273,-0.0282,-0.0289,-0.0271,-0.0189,0,0,0,0,0,-0.0184,-0.0194,-0.0218,-0.0244,-0.026,-0.0259,-0.027,-0.026,-0.0267,-0.0266,-0.028,-0.0284,-0.0296,-0.0286,-0.0311,-0.0318,-0.0291,-0.0332,-0.0339,-0.0345,-0.0334,-0.0313,-0.0316,-0.0287,-0.0286,-0.0286,0,0,-0.0192,-0.0208,-0.0212,-0.0245,-0.0254,-0.0279,-0.0261,-0.0277,-0.0288,-0.0266,-0.031,-0.0327,-0.0315,-0.0342,-0.0354,-0.0318,-0.0346,-0.0351,-0.0356,-0.0341,-0.0318,-0.032,-0.0322,-0.029,-0.0289,-0.0289,0,0,-0.0205,-0.0236,-0.0242,-0.0264,-0.0286,-0.0295,-0.0304,-0.033,-0.0332,-0.0364,-0.0367,-0.0387,-0.0411,-0.0403,-0.0394,-0.0452,-0.0409,-0.047,-0.0458,-0.0439,-0.044,-0.044,-0.0424,-0.0423,-0.0444,-0.0444,-0.0444,0,-0.0209,-0.0234,-0.0249,-0.0274,-0.03,-0.0307,-0.0329,-0.034,-0.0371,-0.0366,-0.0384,-0.0431,-0.0431,-0.0429,-0.0454,-0.0464,-0.0449,-0.0418,-0.0444,-0.0444,-0.0443,-0.0427,-0.0425,-0.0446,-0.0446,-0.0446,-0.0445,0,-0.0244,-0.0255,-0.0274,-0.0301,-0.033,-0.0355,-0.0383,-0.0414,-0.0429,-0.0418,-0.0453,-0.0476,-0.0477,-0.0501,-0.0488,-0.0494,-0.0486,-0.0476,-0.041,-0.0448,-0.043,-0.0427,-0.0449,-0.0449,-0.0448,-0.0447,0,0,-0.026,-0.0284,-0.029,-0.029,-0.0348,-0.0367,-0.041,-0.0423,-0.0417,-0.0464,-0.0455,-0.0503,-0.0495,-0.0489,-0.0497,-0.0484,-0.0483,-0.0474,-0.0472,-0.0439,-0.0443,-0.0444,-0.044,-0.0473,-0.0473,-0.0472,-0.0435,0,-0.0273,-0.0302,-0.0324,-0.0349,-0.0368,-0.0402,-0.0426,-0.0434,-0.0449,-0.0453,-0.0451,-0.0457,-0.049,-0.049,-0.0488,-0.0492,-0.0475,-0.0494,-0.0428,-0.0426,-0.0405,-0.0437,-0.0374,-0.0336,-0.0432,-0.0431,-0.0431,0,-0.0302,-0.0315,-0.0346,-0.0338,-0.0353,-0.0381,-0.0418,-0.043,-0.042,-0.0416,-0.0419,-0.0421,-0.0423,-0.0446,-0.0449,-0.0459,-0.0451,-0.0454,-0.0452,-0.0431,-0.0421,-0.0314,-0.0327,-0.0264,-0.0426,-0.0426,-0.0427,0,-0.0291,-0.0319,-0.0339,-0.0359,-0.0378,-0.0396,-0.0407,-0.0415,-0.0404,-0.039,-0.0372,-0.0378,-0.037,-0.0384,-0.0401,-0.0417,-0.0393,-0.0405,-0.0398,-0.0398,-0.0319,-0.0313,-0.0241,-0.0389,-0.0389,-0.039,-0.039,0,-0.0292,-0.0299,-0.0339,-0.0348,-0.0364,-0.038,-0.0371,-0.0384,-0.0368,-0.0326,-0.0342,-0.0326,-0.0353,-0.0348,-0.0374,-0.0377,-0.0363,-0.0399,-0.0387,-0.0336,-0.0332,-0.0253,-0.0221,-0.0388,-0.0388,-0.0389,-0.0389,0,-0.0269,-0.0288,-0.0304,-0.0338,-0.035,-0.0365,-0.0353,-0.0327,-0.0325,-0.0287,-0.0278,-0.0269,-0.0262,-0.0294,-0.0296,-0.0327,-0.0275,-0.0335,-0.028,-0.0264,-0.0229,-0.0202,-0.0097,0.0006,-0.0333,-0.0333,-0.0332,0,-0.0258,-0.0265,-0.0312,-0.0309,-0.0328,-0.0337,-0.0317,-0.0312,-0.0287,-0.0252,-0.0226,-0.021,-0.0175,-0.019,-0.024,-0.0272,-0.0216,-0.024,-0.0269,-0.0216,-0.0176,-0.0148,-0.0065,-0.0182,-0.018,-0.0179,-0.0178,0,-0.0235,-0.0261,-0.0282,-0.029,-0.0287,-0.0268,-0.0252,-0.0229,-0.0203,-0.0174,-0.0127,-0.0098,-0.0104,-0.0089,-0.0137,-0.0175,-0.014,-0.022,-0.016,-0.005,-0.0013,0.0088,-0.0225,-0.0168,-0.0169,-0.017,-0.017,-0.0171,-0.0232,-0.0246,-0.0263,-0.0274,-0.0248,-0.0203,-0.0169,-0.0135,-0.0089,-0.0022,-0.0022,0.0072,0.0099,0.0039,-0.0047,-0.0074,-0.0059,-0.005,-0.0021,0.0001,0.0105,-0.02,-0.014,-0.0141,-0.0141,-0.0142,-0.0142,0,-0.0232,-0.0229,-0.0226,-0.0221,-0.0172,-0.0172,-0.0121,-0.0068,0.0001,0.0088,0.0147,0.0321,0.0306,0.0252,0.0199,0.0168,0.0171,0.017,0.0248,0.0325,0.0061,0.0071,0.0177,0.0177,0.0177,0.0177,0.0177,0.0177,-0.022,-0.0215,-0.0219,-0.0156,-0.013,-0.0059,-0.0019,0.005,0.0124,0.032,0.047,0.0572,0.0716,0.052,0.0435,0.0379,0.0507,0.0452,0.0519,0.0334,0.0317,0.03,0.0316,0.0472,0.0472,0.0829,0.0832,0.0834]}],[{"header":{"parameterUnit":"m.s-1","parameterCategory":2,"la1":30.2991,"la2":30.254,"lo1":-89.0895,"lo2":-89.0444,"dy":0.0017,"dx":0.0017,"nx":28,"ny":28,"refTime":"2023-08-13T03:00:00:Z","depth":"2","parameterNumber":2,"parameterNumberName":"U-component_of_CURRENTS"},"data":[0,0,0,0,0,0,0,0,0,0,0,0,0,0,0,0,0,0,0,0,0,0,0,0,0,0,0,0,0,0,0,0,0,0,0,0,0,0,0,0,0,0,0,0,0,0,0,0,0,0,0,0,0,0,0,0,0,0,-0.2566,-0.2567,0,-0.2553,-0.2552,-0.2551,-0.2503,-0.2503,-0.2503,-0.2502,-0.2375,-0.2372,-0.2369,0,0,0,0,0,0,0,0,0,0,0,0,0,-0.2354,-0.2359,-0.2566,-0.2567,-0.2568,-0.2553,-0.2552,-0.2551,-0.2503,-0.2503,-0.2503,-0.2502,-0.2376,-0.2372,-0.2368,0,0,0,0,0,0,0,0,0,0,0,0,0,-0.2394,-0.236,-0.2566,-0.2551,-0.255,-0.2553,-0.2552,-0.255,-0.2503,-0.2503,-0.2503,-0.2502,-0.2378,-0.2373,-0.2368,-0.2339,0,0,-0.2352,-0.235,0,0,0,0,0,0,0,0,-0.2392,-0.24,-0.2552,-0.2552,-0.2551,-0.2539,-0.2431,-0.2478,-0.2503,-0.2509,-0.2502,-0.2502,-0.2427,-0.2418,-0.2401,-0.2333,-0.2328,-0.2352,-0.2349,-0.2347,-0.2345,0,0,0,0,0,0,0,-0.2389,-0.24,-0.255,-0.2553,-0.2553,-0.2478,-0.2484,-0.2438,-0.2458,-0.2508,-0.2508,-0.2524,-0.2424,-0.2406,-0.2398,-0.2326,-0.2352,-0.2348,-0.2345,-0.2343,-0.2185,-0.2184,0,0,0,0,0,0,-0.2425,-0.2399,-0.255,-0.255,-0.2482,-0.2483,-0.2489,-0.2534,-0.2461,-0.2454,-0.2524,-0.2522,-0.2415,-0.2404,-0.2393,-0.2314,-0.2347,-0.2342,-0.2339,-0.2187,-0.2185,-0.2184,0,0,0,0,0,0,-0.2421,-0.244,-0.2551,-0.248,-0.2491,-0.249,-0.2538,-0.2534,-0.251,-0.2476,-0.2464,-0.2506,-0.2414,-0.24,-0.2331,-0.231,-0.234,-0.2335,-0.2188,-0.2186,-0.2184,-0.2181,0,0,0,0,0,0,-0.2415,-0.2439,-0.2461,-0.2485,-0.2497,-0.2542,-0.2539,-0.2534,-0.2527,-0.2523,-0.2457,-0.2445,-0.2413,-0.2339,-0.2326,-0.2304,-0.2332,-0.2189,-0.2187,-0.2185,-0.2183,-0.2179,-0.2176,0,0,0,0,0,-0.2408,-0.2449,-0.2463,-0.248,-0.2536,-0.2542,-0.2539,-0.2528,-0.2526,-0.2506,-0.2458,-0.2447,-0.2316,-0.2333,-0.2319,-0.2295,-0.2191,-0.2188,-0.2185,-0.2184,-0.218,-0.2177,0,0,0,0,0,0,-0.2325,-0.2451,-0.2465,-0.253,-0.2531,-0.2538,-0.2529,-0.2526,-0.2474,-0.2464,-0.2424,-0.2407,-0.2338,-0.2317,-0.2337,-0.2243,-0.2255,-0.2249,-0.2259,-0.2254,-0.2251,-0.2258,-0.2327,0,0,0,0,0,-0.2334,-0.2427,-0.2472,-0.2514,-0.2522,-0.2521,-0.2519,-0.2513,-0.2489,-0.2467,-0.2414,-0.2364,-0.2317,-0.2288,-0.2235,-0.2182,-0.215,-0.216,-0.2157,-0.2155,-0.215,-0.2102,-0.2095,-0.2175,-0.2175,-0.2175,0,0,-0.2311,-0.2394,-0.2437,-0.2507,-0.2508,-0.25,-0.2515,-0.2514,-0.2488,-0.2459,-0.238,-0.2342,-0.2299,-0.2234,-0.2203,-0.2214,-0.2107,-0.2151,-0.215,-0.2146,-0.2099,-0.2091,-0.2084,-0.2173,-0.2174,-0.2174,0,0,-0.2305,-0.2381,-0.244,-0.245,-0.2482,-0.2481,-0.2483,-0.2472,-0.2446,-0.2382,-0.2357,-0.231,-0.2221,-0.2194,-0.2172,-0.2123,-0.2088,-0.2105,-0.2098,-0.2051,-0.2045,-0.2039,-0.1957,-0.1943,-0.211,-0.211,-0.211,0,-0.2258,-0.2345,-0.2434,-0.2459,-0.246,-0.2473,-0.2459,-0.2438,-0.2393,-0.2372,-0.2349,-0.2243,-0.2204,-0.216,-0.2136,-0.2117,-0.2071,-0.2118,-0.2048,-0.2042,-0.2036,-0.1954,-0.1939,-0.211,-0.211,-0.211,-0.211,0,-0.2282,-0.2323,-0.2342,-0.2403,-0.2408,-0.2397,-0.24,-0.2368,-0.2339,-0.2319,-0.2252,-0.2198,-0.2141,-0.2127,-0.2108,-0.2054,-0.2026,-0.2047,-0.2062,-0.2028,-0.1942,-0.1927,-0.2109,-0.2109,-0.2109,-0.2109,0,0,-0.2229,-0.2342,-0.2339,-0.2342,-0.2375,-0.2372,-0.2347,-0.2325,-0.23,-0.2246,-0.2204,-0.2134,-0.2118,-0.2092,-0.2075,-0.2041,-0.1943,-0.202,-0.2018,-0.1945,-0.1802,-0.1659,-0.1628,-0.1951,-0.195,-0.1948,-0.1749,0,-0.219,-0.2239,-0.2306,-0.2279,-0.2278,-0.2298,-0.2271,-0.226,-0.2233,-0.2187,-0.217,-0.2104,-0.2105,-0.2065,-0.2036,-0.197,-0.1907,-0.1993,-0.1841,-0.1835,-0.1719,-0.1608,-0.16,-0.1412,-0.1735,-0.1732,-0.173,0,-0.2171,-0.2209,-0.2197,-0.2228,-0.2227,-0.218,-0.2157,-0.2156,-0.2137,-0.2118,-0.2093,-0.2071,-0.2013,-0.2015,-0.189,-0.194,-0.1856,-0.1811,-0.1803,-0.1662,-0.1664,-0.1503,-0.1372,-0.1705,-0.1707,-0.1709,-0.171,0,-0.2089,-0.2127,-0.2115,-0.2116,-0.2142,-0.2094,-0.2093,-0.2091,-0.2093,-0.2061,-0.2028,-0.1998,-0.1928,-0.1868,-0.1764,-0.1812,-0.1614,-0.1674,-0.1464,-0.1453,-0.141,-0.1397,-0.1559,-0.156,-0.156,-0.1561,-0.1561,0,-0.2039,-0.2006,-0.2044,-0.2018,-0.1971,-0.2012,-0.1957,-0.197,-0.1968,-0.1956,-0.1966,-0.1915,-0.1882,-0.1783,-0.1724,-0.1512,-0.1567,-0.1415,-0.1379,-0.1402,-0.1391,-0.1638,-0.165,-0.1553,-0.1555,-0.1556,-0.1558,0,-0.1934,-0.1971,-0.1943,-0.1939,-0.1926,-0.1883,-0.1883,-0.1862,-0.1861,-0.1838,-0.1818,-0.1802,-0.166,-0.16,-0.1468,-0.1401,-0.1265,-0.1176,-0.1178,-0.1143,-0.1148,-0.1162,-0.0922,-0.0914,-0.0909,-0.0904,-0.0899,0,-0.1894,-0.1871,-0.1877,-0.1846,-0.1806,-0.1764,-0.1748,-0.179,-0.1794,-0.1761,-0.1745,-0.1602,-0.15,-0.1242,-0.1087,-0.0897,-0.1043,-0.0803,-0.0893,-0.1086,-0.1076,-0.11,-0.1121,-0.0833,-0.0828,-0.0825,-0.0822,0,-0.1794,-0.1786,-0.1776,-0.1723,-0.1668,-0.1679,-0.165,-0.1653,-0.1706,-0.1663,-0.1587,-0.1487,-0.1201,-0.0991,-0.0727,-0.0657,-0.0843,-0.0716,-0.0906,-0.0987,-0.0983,-0.0981,-0.1009,-0.079,-0.0793,-0.0796,-0.0797,-0.0799,-0.1711,-0.1678,-0.166,-0.1587,-0.1566,-0.1554,-0.1529,-0.1531,-0.1529,-0.1451,-0.1425,-0.1192,-0.109,-0.0614,-0.0516,-0.0407,-0.0452,-0.052,-0.054,-0.0561,-0.0578,-0.0563,-0.0292,-0.0292,-0.0293,-0.0293,-0.0293,0,-0.161,-0.156,-0.152,-0.1477,-0.1443,-0.143,-0.1444,-0.1426,-0.1379,-0.1263,-0.1137,-0.086,-0.0658,-0.053,-0.0265,-0.0179,-0.0275,-0.0245,-0.0431,-0.046,-0.0486,-0.051,-0.02,-0.02,-0.0199,-0.0199,0,0,-0.1558,-0.1481,-0.1459,-0.1354,-0.1304,-0.1227,-0.121,-0.1199,-0.1121,-0.0934,-0.0734,-0.0636,-0.052,-0.0362,-0.0325,-0.0224,-0.0364,-0.0224,-0.0303,-0.0555,-0.0582,-0.064,-0.0704,0,0,0,0,0]},{"header":{"parameterUnit":"m.s-1","parameterCategory":2,"la1":30.2991,"la2":30.254,"lo1":-89.0895,"lo2":-89.0444,"dy":0.0017,"dx":0.0017,"nx":28,"ny":28,"refTime":"2023-08-13T03:00:00:Z","depth":"2","parameterNumber":3,"parameterNumberName":"V-component_of_CURRENTS"},"data":[0,0,0,0,0,0,0,0,0,0,0,0,0,0,0,0,0,0,0,0,0,0,0,0,0,0,0,0,0,0,0,0,0,0,0,0,0,0,0,0,0,0,0,0,0,0,0,0,0,0,0,0,0,0,0,0,0,0,0.017,0.0172,0,0.0393,0.0395,0.0397,0.0496,0.0496,0.0496,0.0497,0.0761,0.0768,0.0774,0,0,0,0,0,0,0,0,0,0,0,0,0,-0.0071,-0.0068,0.0169,0.0173,0.0176,0.0392,0.0395,0.0397,0.0496,0.0496,0.0496,0.0497,0.0759,0.0767,0.0775,0,0,0,0,0,0,0,0,0,0,0,0,0,0.0075,-0.0067,0.0169,0.0256,0.0266,0.0392,0.0395,0.0398,0.0496,0.0496,0.0496,0.0497,0.0756,0.0766,0.0776,0.083,0,0,0.0807,0.0811,0,0,0,0,0,0,0,0,0.0066,0.0082,0.024,0.025,0.0262,0.0422,0.0408,0.0547,0.0495,0.0402,0.0497,0.0497,0.0656,0.0674,0.0705,0.0842,0.0853,0.0808,0.0814,0.0818,0.0821,0,0,0,0,0,0,0,0.0056,0.0074,0.0251,0.0243,0.0257,0.0319,0.0339,0.0434,0.0519,0.041,0.0419,0.0454,0.0661,0.0695,0.0712,0.0857,0.0808,0.0817,0.0823,0.0827,0.1111,0.1112,0,0,0,0,0,0,0.0036,0.0064,0.0244,0.0258,0.0171,0.0323,0.0345,0.0365,0.0518,0.0543,0.0454,0.0458,0.0677,0.07,0.0722,0.0815,0.0818,0.0828,0.0834,0.1109,0.1111,0.1113,0,0,0,0,0,0,0.003,0.0049,0.0235,0.0172,0.0201,0.0327,0.0349,0.037,0.042,0.0552,0.0576,0.0486,0.0679,0.0708,0.0818,0.0825,0.0832,0.0842,0.1108,0.111,0.1112,0.0987,0,0,0,0,0,0,0.0021,0.0045,0.0058,0.017,0.0204,0.0318,0.035,0.0374,0.0444,0.0452,0.0587,0.0611,0.0681,0.0802,0.0828,0.0839,0.085,0.1106,0.1109,0.1111,0.099,0.0985,0.0981,0,0,0,0,0,0.0012,0.0041,0.0056,0.008,0.0215,0.032,0.0343,0.0429,0.0444,0.0473,0.0559,0.0608,0.0838,0.0811,0.0841,0.0855,0.1105,0.1108,0.1111,0.0992,0.0986,0.0981,0,0,0,0,0,0,-0.0036,0.0058,0.0077,0.0137,0.022,0.0339,0.0385,0.0431,0.052,0.0526,0.063,0.0661,0.0756,0.0834,0.0802,0.095,0.0979,0.0988,0.0878,0.0874,0.087,0.0831,0.0858,0,0,0,0,0,-0.0049,-0.0017,0.0087,0.0134,0.0172,0.027,0.0324,0.0378,0.0473,0.0511,0.0599,0.07,0.0792,0.0853,0.0944,0.1032,0.1036,0.1064,0.1059,0.1055,0.1047,0.1069,0.1063,0.1124,0.1124,0.1124,0,0,-0.0062,0.0004,0.0017,0.0124,0.0191,0.0247,0.0303,0.0384,0.0427,0.0528,0.0608,0.0688,0.0812,0.0898,0.0949,0.0966,0.1029,0.1059,0.1053,0.1048,0.1071,0.1065,0.1059,0.1126,0.1125,0.1125,0,0,-0.0055,-0.001,0.0018,0.0079,0.0184,0.0244,0.0263,0.0373,0.0417,0.0501,0.0579,0.0665,0.0806,0.0892,0.0954,0.0992,0.1,0.1021,0.0975,0.0996,0.0989,0.0984,0.0912,0.0902,0.1025,0.1025,0.1024,0,-0.0066,-0.0018,0.0047,0.0098,0.0148,0.0233,0.0276,0.0336,0.0463,0.0499,0.0514,0.0698,0.0803,0.0908,0.0917,0.0979,0.0951,0.0973,0.0982,0.0978,0.0974,0.0904,0.0893,0.1019,0.102,0.102,0.1021,0,-0.0048,-0.0001,0.0028,0.01,0.0157,0.0215,0.0297,0.0344,0.0391,0.0451,0.0544,0.0661,0.0767,0.0814,0.0878,0.0922,0.089,0.0958,0.0974,0.0959,0.0887,0.0878,0.1011,0.1013,0.1015,0.1016,0,0,-0.0087,0.0017,0.0028,0.0058,0.0161,0.0212,0.0265,0.0349,0.0377,0.046,0.0492,0.0644,0.0678,0.0751,0.0836,0.0862,0.0801,0.0884,0.0887,0.0772,0.0751,0.0731,0.072,0.085,0.085,0.0849,0.0682,0,-0.0086,-0.0013,0.0044,0.0103,0.014,0.0215,0.0258,0.0332,0.0387,0.043,0.0523,0.0595,0.0663,0.0699,0.073,0.0799,0.0783,0.0834,0.0819,0.0817,0.0771,0.0714,0.0837,0.07,0.0674,0.0672,0.0671,0,-0.0095,-0.0038,0.0013,0.0097,0.012,0.0145,0.021,0.0278,0.0352,0.0387,0.0442,0.0505,0.0565,0.0619,0.0661,0.0675,0.0691,0.0725,0.0721,0.0747,0.0786,0.0732,0.0686,0.0657,0.0658,0.0659,0.066,0,-0.0164,-0.0064,-0.0027,0.0002,0.0106,0.0114,0.0164,0.0242,0.0303,0.0347,0.0359,0.0426,0.0455,0.0491,0.0556,0.0593,0.0559,0.0635,0.0615,0.0609,0.0739,0.0747,0.0639,0.0639,0.0639,0.064,0.064,0,-0.0184,-0.0154,-0.0074,-0.0053,-0.0023,0.0054,0.0098,0.0146,0.0214,0.0268,0.0325,0.034,0.0426,0.0432,0.0482,0.0488,0.0495,0.057,0.0576,0.0693,0.0699,0.0716,0.0728,0.0633,0.0635,0.0636,0.0637,0,-0.0263,-0.0194,-0.0157,-0.0079,-0.0053,-0.0044,0.0063,0.0101,0.0154,0.0203,0.021,0.0254,0.025,0.0303,0.0346,0.0395,0.0419,0.0425,0.0501,0.0521,0.0453,0.0461,0.0357,0.0356,0.0354,0.0353,0.0352,0,-0.0291,-0.0278,-0.0203,-0.0171,-0.0144,-0.0093,-0.0042,0.0051,0.0095,0.0159,0.0159,0.0156,0.0155,0.0153,0.0264,0.0285,0.0325,0.0401,0.0539,0.0413,0.0429,0.0439,0.0449,0.0622,0.0624,0.0625,0.0625,0,-0.035,-0.0335,-0.0295,-0.0236,-0.0198,-0.0124,-0.0069,-0.0051,0.0061,0.0074,0.0067,0.0056,0.0091,0.0194,0.024,0.029,0.041,0.0419,0.029,0.0684,0.0654,0.0673,0.0675,0.0634,0.0633,0.0633,0.0632,0.0632,-0.04,-0.04,-0.034,-0.0285,-0.0226,-0.018,-0.0142,-0.0092,-0.0047,-0.0014,-0.0029,-0.0026,0.0098,0.0183,0.0263,0.0388,0.0406,0.0507,0.0509,0.0508,0.0578,0.055,0.0516,0.0515,0.0514,0.0512,0.0511,0,-0.045,-0.0415,-0.0372,-0.0306,-0.0265,-0.0204,-0.0145,-0.0123,-0.0107,-0.0058,-0.0066,-0.0041,0.0104,0.0213,0.0471,0.056,0.0586,0.0551,0.0652,0.0647,0.0642,0.0722,0.0695,0.0694,0.0693,0.0692,0,0,-0.0461,-0.0435,-0.0403,-0.0341,-0.0287,-0.0221,-0.019,-0.018,-0.0134,-0.0141,-0.0093,-0.0076,0.0124,0.0279,0.0468,0.0634,0.0586,0.0613,0.0491,0.0599,0.059,0.0676,0.0801,0,0,0,0,0]}],[{"header":{"parameterUnit":"m.s-1","parameterCategory":2,"la1":30.2991,"la2":30.254,"lo1":-89.0895,"lo2":-89.0444,"dy":0.0017,"dx":0.0017,"nx":28,"ny":28,"refTime":"2023-08-13T03:00:00:Z","depth":"4","parameterNumber":2,"parameterNumberName":"U-component_of_CURRENTS"},"data":[0,0,0,0,0,0,0,0,0,0,0,0,0,0,0,0,0,0,0,0,0,0,0,0,0,0,0,0,0,0,0,0,0,0,0,0,0,0,0,0,0,0,0,0,0,0,0,0,0,0,0,0,0,0,0,0,0,0,-0.1078,-0.1079,0,-0.1139,-0.114,-0.1141,-0.1194,-0.1194,-0.1195,-0.1195,-0.1249,-0.125,-0.1251,0,0,0,0,0,0,0,0,0,0,0,0,0,-0.1029,-0.103,-0.1078,-0.1079,-0.1079,-0.1139,-0.114,-0.1141,-0.1194,-0.1194,-0.1195,-0.1195,-0.1249,-0.125,-0.1252,0,0,0,0,0,0,0,0,0,0,0,0,0,-0.1068,-0.103,-0.1078,-0.1111,-0.1115,-0.1139,-0.114,-0.1142,-0.1194,-0.1194,-0.1195,-0.1196,-0.1249,-0.125,-0.1252,-0.1248,0,0,-0.1256,-0.1257,0,0,0,0,0,0,0,0,-0.1066,-0.107,-0.1106,-0.1109,-0.1113,-0.1158,-0.1143,-0.1176,-0.1193,-0.1165,-0.1195,-0.1196,-0.1217,-0.1221,-0.1233,-0.1251,-0.1253,-0.1257,-0.1258,-0.1258,-0.1259,0,0,0,0,0,0,0,-0.1063,-0.1068,-0.1104,-0.1106,-0.1111,-0.1131,-0.1138,-0.115,-0.1188,-0.1168,-0.1171,-0.1176,-0.1219,-0.1232,-0.1235,-0.1254,-0.1257,-0.1258,-0.1259,-0.126,-0.1326,-0.1326,0,0,0,0,0,0,-0.105,-0.1065,-0.1102,-0.1106,-0.1089,-0.1131,-0.1138,-0.1144,-0.1188,-0.1195,-0.1175,-0.1178,-0.1229,-0.1233,-0.1237,-0.1275,-0.1258,-0.126,-0.1261,-0.1325,-0.1326,-0.1327,0,0,0,0,0,0,-0.1049,-0.1053,-0.1099,-0.1085,-0.1093,-0.1131,-0.1138,-0.1145,-0.1177,-0.1193,-0.12,-0.1201,-0.123,-0.1235,-0.1269,-0.1276,-0.126,-0.1262,-0.1324,-0.1325,-0.1326,-0.1324,0,0,0,0,0,0,-0.1047,-0.1052,-0.1058,-0.1085,-0.1093,-0.1124,-0.1137,-0.1146,-0.1176,-0.1181,-0.1217,-0.1222,-0.123,-0.1267,-0.127,-0.1277,-0.1263,-0.1323,-0.1324,-0.1326,-0.1323,-0.1325,-0.1327,0,0,0,0,0,-0.1046,-0.1051,-0.1058,-0.1062,-0.1097,-0.1124,-0.1131,-0.1161,-0.1177,-0.1192,-0.1221,-0.1222,-0.1279,-0.1269,-0.1273,-0.128,-0.1322,-0.1324,-0.1326,-0.1322,-0.1325,-0.1327,0,0,0,0,0,0,-0.1037,-0.1057,-0.1065,-0.1078,-0.1102,-0.1133,-0.1153,-0.1169,-0.1205,-0.1218,-0.1233,-0.124,-0.1269,-0.128,-0.1268,-0.1306,-0.13,-0.1303,-0.1296,-0.1298,-0.13,-0.1302,-0.1264,0,0,0,0,0,-0.1034,-0.1042,-0.1066,-0.1077,-0.1094,-0.1125,-0.1143,-0.1164,-0.1194,-0.1212,-0.1237,-0.1263,-0.1277,-0.1293,-0.1309,-0.1332,-0.1331,-0.1341,-0.1342,-0.1344,-0.135,-0.1368,-0.1372,-0.1333,-0.1333,-0.1333,0,0,-0.1035,-0.1045,-0.1051,-0.1076,-0.1102,-0.1129,-0.114,-0.1174,-0.1195,-0.121,-0.1257,-0.127,-0.1284,-0.1309,-0.1323,-0.1322,-0.135,-0.1346,-0.1347,-0.1352,-0.137,-0.1374,-0.1377,-0.1334,-0.1334,-0.1334,0,0,-0.1036,-0.1053,-0.1061,-0.1086,-0.1121,-0.1141,-0.1153,-0.1195,-0.1218,-0.1252,-0.1267,-0.129,-0.132,-0.1333,-0.1339,-0.1363,-0.1356,-0.1367,-0.1381,-0.1399,-0.1402,-0.1405,-0.1383,-0.1384,-0.1372,-0.1372,-0.1372,0,-0.1038,-0.1047,-0.1069,-0.1091,-0.111,-0.1148,-0.1169,-0.1199,-0.1246,-0.1258,-0.127,-0.1316,-0.1329,-0.135,-0.136,-0.1365,-0.1364,-0.1368,-0.14,-0.1403,-0.1406,-0.1383,-0.1385,-0.1372,-0.1372,-0.1372,-0.1372,0,-0.1047,-0.1063,-0.1077,-0.1111,-0.1135,-0.1163,-0.1201,-0.1231,-0.1257,-0.1279,-0.1313,-0.1337,-0.1362,-0.1368,-0.1371,-0.1397,-0.1384,-0.1395,-0.139,-0.141,-0.1384,-0.1386,-0.1372,-0.1372,-0.1372,-0.1372,0,0,-0.1029,-0.1071,-0.108,-0.109,-0.1148,-0.1164,-0.1205,-0.1236,-0.1257,-0.1303,-0.1322,-0.1356,-0.1374,-0.1384,-0.1396,-0.1416,-0.1423,-0.1418,-0.1419,-0.1388,-0.1436,-0.129,-0.1277,-0.1444,-0.1445,-0.1446,-0.14,0,-0.103,-0.1059,-0.1081,-0.1113,-0.1132,-0.1173,-0.1203,-0.124,-0.127,-0.1302,-0.1333,-0.1359,-0.138,-0.1389,-0.1417,-0.1428,-0.1431,-0.1432,-0.143,-0.1429,-0.1291,-0.1276,-0.1448,-0.1401,-0.1401,-0.1401,-0.1401,0,-0.1027,-0.1045,-0.1075,-0.11,-0.1114,-0.1139,-0.1179,-0.1209,-0.1262,-0.1289,-0.133,-0.1355,-0.1395,-0.1406,-0.1444,-0.1446,-0.1441,-0.1445,-0.1444,-0.1312,-0.1285,-0.1386,-0.1403,-0.1403,-0.1403,-0.1403,-0.1403,0,-0.0992,-0.103,-0.1047,-0.1066,-0.1116,-0.1126,-0.1148,-0.1202,-0.1221,-0.128,-0.1297,-0.1357,-0.1375,-0.141,-0.1422,-0.1438,-0.1443,-0.1462,-0.1319,-0.1308,-0.1456,-0.1454,-0.1473,-0.1473,-0.1473,-0.1473,-0.1473,0,-0.097,-0.0983,-0.1031,-0.1047,-0.1057,-0.1101,-0.1116,-0.1153,-0.1201,-0.1213,-0.1288,-0.1296,-0.138,-0.1391,-0.1413,-0.1354,-0.1435,-0.1306,-0.1287,-0.1452,-0.1451,-0.1455,-0.1453,-0.1471,-0.1472,-0.1472,-0.1472,0,-0.0925,-0.0965,-0.0983,-0.1033,-0.1042,-0.1051,-0.1083,-0.1092,-0.1154,-0.1169,-0.1185,-0.125,-0.1242,-0.1289,-0.1317,-0.1304,-0.1287,-0.1242,-0.1383,-0.1375,-0.1141,-0.1141,-0.1076,-0.107,-0.1066,-0.1062,-0.1058,0,-0.0902,-0.0911,-0.0966,-0.097,-0.0989,-0.1005,-0.1011,-0.1065,-0.1071,-0.1121,-0.1114,-0.1118,-0.1143,-0.1069,-0.1136,-0.1127,-0.1123,-0.1118,-0.1158,-0.1113,-0.1102,-0.1108,-0.1114,-0.1051,-0.105,-0.1049,-0.1047,0,-0.0853,-0.0885,-0.0906,-0.0918,-0.0925,-0.092,-0.0927,-0.0921,-0.0972,-0.1037,-0.0999,-0.0985,-0.0948,-0.0962,-0.0942,-0.0956,-0.1136,-0.107,-0.108,-0.1118,-0.1082,-0.1077,-0.1088,-0.1031,-0.1033,-0.1035,-0.1036,0,-0.0822,-0.0818,-0.085,-0.0849,-0.0848,-0.0814,-0.0835,-0.0816,-0.0826,-0.0885,-0.086,-0.0875,-0.0915,-0.0867,-0.0867,-0.0842,-0.0839,-0.0857,-0.0879,-0.0897,-0.0862,-0.0792,-0.0619,0,0,0,0,0,-0.0779,-0.0765,-0.0765,-0.0749,-0.0741,-0.0736,-0.0764,-0.0793,-0.0839,-0.0776,-0.0813,-0.0771,-0.0732,-0.0753,-0.0687,-0.0783,-0.0849,-0.0707,-0.0883,-0.0941,-0.096,-0.0935,0,0,0,0,0,0,-0.0748,-0.0752,-0.0745,-0.066,-0.0621,-0.0596,-0.061,-0.0652,-0.0624,-0.0683,-0.0661,-0.0712,-0.0684,-0.0732,-0.0661,-0.0666,-0.0761,-0.0722,-0.072,-0.093,-0.0947,-0.0962,-0.0944,0,0,0,0,0]},{"header":{"parameterUnit":"m.s-1","parameterCategory":2,"la1":30.2991,"la2":30.254,"lo1":-89.0895,"lo2":-89.0444,"dy":0.0017,"dx":0.0017,"nx":28,"ny":28,"refTime":"2023-08-13T03:00:00:Z","depth":"4","parameterNumber":3,"parameterNumberName":"V-component_of_CURRENTS"},"data":[0,0,0,0,0,0,0,0,0,0,0,0,0,0,0,0,0,0,0,0,0,0,0,0,0,0,0,0,0,0,0,0,0,0,0,0,0,0,0,0,0,0,0,0,0,0,0,0,0,0,0,0,0,0,0,0,0,0,-0.0253,-0.0253,0,-0.0245,-0.0245,-0.0245,-0.0225,-0.0225,-0.0224,-0.0224,-0.0205,-0.0205,-0.0205,0,0,0,0,0,0,0,0,0,0,0,0,0,-0.0201,-0.0202,-0.0253,-0.0253,-0.0253,-0.0245,-0.0245,-0.0244,-0.0225,-0.0225,-0.0224,-0.0224,-0.0206,-0.0205,-0.0205,0,0,0,0,0,0,0,0,0,0,0,0,0,-0.0211,-0.0203,-0.0253,-0.0242,-0.0241,-0.0245,-0.0245,-0.0244,-0.0225,-0.0225,-0.0224,-0.0223,-0.0206,-0.0205,-0.0205,-0.0216,0,0,-0.0205,-0.0205,0,0,0,0,0,0,0,0,-0.0211,-0.0213,-0.0244,-0.0243,-0.0242,-0.0235,-0.022,-0.0235,-0.0225,-0.0231,-0.0224,-0.0223,-0.0215,-0.0214,-0.0214,-0.0215,-0.0215,-0.0205,-0.0205,-0.0205,-0.0204,0,0,0,0,0,0,0,-0.021,-0.0213,-0.025,-0.0244,-0.0243,-0.022,-0.0221,-0.0222,-0.0226,-0.0231,-0.0229,-0.0229,-0.0214,-0.0214,-0.0213,-0.0214,-0.0205,-0.0205,-0.0204,-0.0204,-0.0253,-0.0255,0,0,0,0,0,0,-0.0215,-0.0213,-0.025,-0.0249,-0.0225,-0.0222,-0.0223,-0.0238,-0.0227,-0.0224,-0.0229,-0.0228,-0.0215,-0.0214,-0.0213,-0.0245,-0.0205,-0.0204,-0.0204,-0.0252,-0.0254,-0.0255,0,0,0,0,0,0,-0.0214,-0.0219,-0.025,-0.023,-0.0232,-0.0224,-0.024,-0.0238,-0.0237,-0.0225,-0.0223,-0.023,-0.0214,-0.0213,-0.0222,-0.0243,-0.0204,-0.0204,-0.025,-0.0252,-0.0254,-0.0296,0,0,0,0,0,0,-0.0213,-0.0219,-0.0232,-0.0231,-0.0234,-0.0259,-0.0241,-0.0238,-0.0237,-0.0235,-0.0225,-0.0223,-0.0214,-0.0223,-0.0222,-0.0242,-0.0204,-0.0248,-0.0251,-0.0254,-0.0293,-0.0299,-0.0305,0,0,0,0,0,-0.0212,-0.0224,-0.0234,-0.0238,-0.0252,-0.026,-0.026,-0.025,-0.0238,-0.0245,-0.024,-0.0223,-0.0239,-0.0224,-0.0222,-0.0243,-0.0247,-0.025,-0.0253,-0.029,-0.0298,-0.0305,0,0,0,0,0,0,-0.0207,-0.0224,-0.0233,-0.0252,-0.0262,-0.0257,-0.0256,-0.0253,-0.0254,-0.0249,-0.0237,-0.0235,-0.0251,-0.0245,-0.0228,-0.0267,-0.0242,-0.0245,-0.0271,-0.0278,-0.0284,-0.0282,-0.0204,0,0,0,0,0,-0.0215,-0.0232,-0.0245,-0.0262,-0.0265,-0.0264,-0.0264,-0.0262,-0.0261,-0.026,-0.0258,-0.0258,-0.0265,-0.0269,-0.0271,-0.0291,-0.0249,-0.0306,-0.0312,-0.0317,-0.0317,-0.0274,-0.0275,-0.0265,-0.0265,-0.0265,0,0,-0.0221,-0.0231,-0.0242,-0.0263,-0.0265,-0.0281,-0.0262,-0.0265,-0.0284,-0.0258,-0.028,-0.0275,-0.0274,-0.0296,-0.0304,-0.0293,-0.0297,-0.0321,-0.0325,-0.0322,-0.0277,-0.0278,-0.0278,-0.0268,-0.0267,-0.0267,0,0,-0.0232,-0.0247,-0.0263,-0.0274,-0.0283,-0.0288,-0.0292,-0.0297,-0.0301,-0.0324,-0.0311,-0.0322,-0.0333,-0.034,-0.0343,-0.0386,-0.0327,-0.0388,-0.0418,-0.0377,-0.0377,-0.0376,-0.031,-0.0303,-0.0394,-0.0394,-0.0394,0,-0.0238,-0.0265,-0.0268,-0.0283,-0.0297,-0.0295,-0.0317,-0.0325,-0.0337,-0.0349,-0.0338,-0.0358,-0.0357,-0.0382,-0.0399,-0.0399,-0.0349,-0.0388,-0.0382,-0.038,-0.0379,-0.0311,-0.0303,-0.0397,-0.0397,-0.0396,-0.0396,0,-0.0262,-0.0284,-0.0289,-0.0319,-0.0336,-0.035,-0.0368,-0.0389,-0.0395,-0.0403,-0.0425,-0.0421,-0.0434,-0.044,-0.0432,-0.0435,-0.0393,-0.0388,-0.0357,-0.0382,-0.031,-0.03,-0.04,-0.0399,-0.0399,-0.0398,0,0,-0.0278,-0.0303,-0.0306,-0.0331,-0.0356,-0.0376,-0.0412,-0.0448,-0.0474,-0.0478,-0.0504,-0.0518,-0.0503,-0.0507,-0.0495,-0.0465,-0.0413,-0.0423,-0.0419,-0.0345,-0.0288,-0.0275,-0.0263,-0.0393,-0.0392,-0.0391,-0.0236,0,-0.0298,-0.0332,-0.0344,-0.0393,-0.0417,-0.0438,-0.0476,-0.0507,-0.0527,-0.0551,-0.054,-0.0556,-0.0531,-0.0537,-0.0503,-0.0443,-0.0391,-0.0453,-0.0286,-0.0281,-0.0257,-0.0254,-0.0389,-0.0228,-0.0226,-0.0225,-0.0223,0,-0.0326,-0.0344,-0.0387,-0.0441,-0.0454,-0.0489,-0.0556,-0.0586,-0.0616,-0.0623,-0.0626,-0.0613,-0.0591,-0.0559,-0.0443,-0.0476,-0.0383,-0.0321,-0.0313,-0.0281,-0.0252,-0.0203,-0.0205,-0.0207,-0.0208,-0.0209,-0.021,0,-0.0344,-0.0384,-0.0421,-0.0438,-0.0491,-0.0528,-0.0565,-0.0612,-0.0642,-0.0665,-0.0678,-0.0644,-0.0625,-0.0519,-0.0409,-0.0414,-0.0253,-0.0247,-0.0138,-0.0134,-0.017,-0.0173,-0.014,-0.014,-0.014,-0.014,-0.0141,0,-0.0371,-0.0404,-0.0434,-0.0457,-0.052,-0.0549,-0.0617,-0.0652,-0.0684,-0.0711,-0.0708,-0.0707,-0.061,-0.0523,-0.0405,-0.0242,-0.0244,-0.0132,-0.0097,-0.0191,-0.0198,-0.0162,-0.0166,-0.0135,-0.0136,-0.0137,-0.0138,0,-0.0393,-0.0409,-0.0457,-0.0507,-0.0531,-0.0579,-0.065,-0.0692,-0.0716,-0.0747,-0.0753,-0.0735,-0.0621,-0.0504,-0.0329,-0.024,-0.0091,-0.0025,-0.0117,-0.0091,0.001,0.0001,0.0117,0.0119,0.012,0.0121,0.0122,0,-0.041,-0.0429,-0.0488,-0.0523,-0.0552,-0.0616,-0.0664,-0.0707,-0.0736,-0.0757,-0.0762,-0.0693,-0.0656,-0.0396,-0.0278,-0.0045,-0.0016,0.0067,0.0021,0.0011,0.0034,0.0023,0.0012,0.0124,0.0125,0.0125,0.0126,0,-0.0433,-0.0449,-0.0485,-0.0545,-0.0603,-0.0666,-0.0723,-0.0737,-0.0771,-0.0791,-0.0751,-0.0661,-0.0532,-0.0376,-0.02,-0.0039,0.0003,0.0082,0.008,0.0038,0.0022,0.0041,0.0029,0.013,0.013,0.0129,0.0129,0,-0.0446,-0.0475,-0.0512,-0.0569,-0.0638,-0.0692,-0.0726,-0.0739,-0.076,-0.076,-0.0739,-0.0634,-0.0577,-0.0368,-0.0209,-0.0056,-0.0017,0.0027,0.0029,0.0025,-0.0067,-0.0106,0.0002,0,0,0,0,0,-0.0453,-0.0482,-0.0533,-0.0599,-0.0662,-0.07,-0.0754,-0.0773,-0.0787,-0.0749,-0.0738,-0.0617,-0.0415,-0.0349,-0.0186,-0.0179,0.0006,0.0015,0.0057,0.0157,0.0152,0.0057,0,0,0,0,0,0,-0.0463,-0.0506,-0.0527,-0.06,-0.0644,-0.0718,-0.0751,-0.0765,-0.0732,-0.0726,-0.0616,-0.0575,-0.0375,-0.0497,-0.0182,-0.0143,-0.0093,0.0104,0.0107,0.016,0.0155,0.0151,0.0052,0,0,0,0,0]}]]